This demonstration page uses our WeatherBlox Daily Observations layout. Learn more.

41.55636, -103.73856

Hourly Observations for May 12, 2016

Temp ( °F °C ) Dew Point ( °F °C ) Humidity (%) Winds ( mph kmh ) Pressure ( in mb ) Visibility ( mi km ) Precip ( " mm )
12:53 am 00:53 Mostly Cloudy 38 3.3 32 0 79 79 N 6 9 30.28 1025 10 16.0934 0 0
1:53 am 01:53 Cloudy 39 3.9 34 1.1 82 82 Calm 30.27 1025 10 16.0934 0 0
2:53 am 02:53 Cloudy 38 3.3 33 0.6 83 83 Calm 30.28 1025 10 16.0934 0 0
3:53 am 03:53 Mostly Cloudy 37 2.8 31 -0.6 79 79 N 3 6 30.27 1025 10 16.0934 0 0
4:53 am 04:53 Mostly Clear 35 1.7 30 -1.1 82 82 undefined N/A 30.27 1025 10 16.0934 0 0
5:53 am 05:53 Sunny 34 1.1 29 -1.7 82 82 N 5 7 30.28 1025 10 16.0934 0 0
6:53 am 06:53 Sunny 40 4.4 33 0.6 77 77 NNW 3 6 30.27 1025 10 16.0934 0 0
7:53 am 07:53 Sunny 46 7.8 36 2.2 68 68 WNW 5 7 30.27 1025 10 16.0934 0 0
8:53 am 08:53 Sunny 52 11.1 36 2.2 55 55 VRB 5 7 30.26 1025 10 16.0934 0 0
9:53 am 09:53 Sunny 57 13.9 37 2.8 47 47 Calm 30.23 1024 10 16.0934 0 0
10:53 am 10:53 Sunny 62 16.7 35 1.7 37 37 W 10 17 30.22 1024 10 16.0934 0 0
11:53 am 11:53 Sunny 63 17.2 30 -1.1 29 29 WSW 7 11 30.2 1023 10 16.0934 0 0
12:53 pm 12:53 Sunny 66 18.9 32 0 28 28 WNW 10 17 30.18 1022 10 16.0934 0 0
1:53 pm 13:53 Sunny 68 20 34 1.1 28 28 W 14 22 30.15 1021 10 16.0934 0 0
2:53 pm 14:53 Sunny 69 20.6 32 0 25 25 NW 10 17 30.13 1020 10 16.0934 0 0
3:53 pm 15:53 Sunny 70 21.1 31 -0.6 23 23 W 14 22 30.1 1019 10 16.0934 0 0
4:53 pm 16:53 Sunny 72 22.2 33 0.6 24 24 NW 9 15 30.09 1019 10 16.0934 0 0
5:53 pm 17:53 Sunny 72 22.2 33 0.6 24 24 Calm 30.07 1018 10 16.0934 0 0
6:53 pm 18:53 Sunny 68 20 37 2.8 32 32 Calm 30.05 1018 10 16.0934 0 0
7:53 pm 19:53 Sunny 62 16.7 38 3.3 41 41 SE 7 11 30.06 1018 10 16.0934 0 0
8:53 pm 20:53 Clear 57 13.9 38 3.3 49 49 ESE 6 9 30.05 1018 10 16.0934 0 0
9:53 pm 21:53 Clear 54 12.2 39 3.9 57 57 ESE 6 9 30.04 1017 10 16.0934 0 0
10:53 pm 22:53 Clear 50 10 39 3.9 66 66 SE 9 15 30.03 1017 10 16.0934 0 0
11:53 pm 23:53 Clear 48 8.9 38 3.3 68 68 E 7 11 30.01 1016 10 16.0934 0 0

Powered by AerisWeather